Harrison Township, MI

6:17 AM EDT on August 27, 2016 (GMT -0400)
Selfridge Angb

Weather History for KMTC - January, 2013

Change the Weather History Date:

Friday, January 25, 2013

  Actual Average Record
Temperature  
Mean Temperature 18 °F -  
Max Temperature 21 °F 31 °F 59 °F (1950)
Min Temperature 14 °F 18 °F -11 °F (2004)
Degree Days  
Heating Degree Days 48    
Moisture  
Dew Point 14 °F    
Average Humidity 82    
Maximum Humidity 93    
Minimum Humidity 68    
Precipitation  
Precipitation 0.05 in - - ()
Snow  
Snow 0.00 in - - ()
Snow Depth 1.00 in    
Sea Level Pressure  
Sea Level Pressure 30.14 in    
Wind  
Wind Speed 8 mph (SSE)    
Max Wind Speed 14 mph    
Max Gust Speed -    
Visibility 5 miles    
Events Snow    
Averages and records for this station are not official NWS values.
T = Trace of Precipitation, MM = Missing Value Source: NWS Daily Summary

Daily Weather History Graph

Daily Weather History Graph

Search for Another Location

Airport or City:

Trip Planner

Search our weather history database for the weather conditions in past years. The results will help you decide how hot, cold, wet, or windy it might be!

Date:

Astronomy

Jan. 25, 2013 Rise Set
Actual Time 7:51 AM EST 5:36 PM EST
Civil Twilight 7:21 AM EST 6:06 PM EST
Nautical Twilight 6:47 AM EST 6:40 PM EST
Astronomical Twilight 6:13 AM EST 7:14 PM EST
Moon 4:32 PM EST (1/25) 6:30 AM EST (1/25)
Length of Visible Light 10h 45m
Length of Day
9h 44m
Waxing Gibbous, 98% of the Moon is Illuminated
Jan 25
Waxing Gibbous
Jan 26
Full
Feb 3
Last Quarter
Feb 10
New
Feb 17
First Quarter

Hourly Weather History & Observations

Time (EST) Temp. Windchill Dew Point Humidity Pressure Visibility Wind Dir Wind Speed Gust Speed Precip Events Conditions
4:55 AM 14.0 °F 5.1 °F 8.6 °F 79% 30.41 in 10.0 mi ESE 5.8 mph - N/A   Overcast
5:55 AM 15.8 °F 7.2 °F 8.6 °F 73% 30.37 in 10.0 mi SE 5.8 mph - N/A   Overcast
6:55 AM 17.6 °F 9.3 °F 8.6 °F 68% 30.33 in 10.0 mi SE 5.8 mph - N/A   Mostly Cloudy
7:20 AM 17.6 °F 9.3 °F 8.6 °F 68% 30.25 in 10.0 mi SE 5.8 mph - N/A Snow Light Snow
7:55 AM 17.6 °F 6.4 °F 10.4 °F 73% 30.30 in 10.0 mi SE 9.2 mph - N/A Snow Light Snow
8:33 AM 17.6 °F 6.4 °F 12.2 °F 79% 30.21 in 3.0 mi SSE 9.2 mph - N/A Snow Light Snow
8:55 AM 17.6 °F 6.4 °F 12.2 °F 79% 30.27 in 5.0 mi SSE 9.2 mph - N/A Snow Light Snow
9:38 AM 17.6 °F 6.4 °F 14.0 °F 86% 30.20 in 2.5 mi SSE 9.2 mph - N/A Snow Light Snow
9:55 AM 17.6 °F 6.4 °F 14.0 °F 86% 30.25 in 2.2 mi SSE 9.2 mph - N/A Snow Light Snow
10:19 AM 17.6 °F 7.3 °F 14.0 °F 86% 30.19 in 2.0 mi SSE 8.1 mph - N/A Snow Light Snow
10:55 AM 19.4 °F 9.5 °F 14.0 °F 80% 30.24 in 2.0 mi SSE 8.1 mph - N/A Snow Light Snow
11:30 AM 19.4 °F 8.6 °F 15.8 °F 86% 30.12 in 2.5 mi ESE 9.2 mph - N/A Snow Light Snow
11:55 AM 19.4 °F 8.6 °F 15.8 °F 86% 30.19 in 2.5 mi ESE 9.2 mph - N/A Snow Light Snow
12:10 PM 19.4 °F 8.6 °F 15.8 °F 86% 30.13 in 1.5 mi SSE 9.2 mph - N/A Snow Light Snow
12:24 PM 19.4 °F 6.6 °F 15.8 °F 86% 30.13 in 0.8 mi South 12.7 mph - N/A Snow Light Snow
12:45 PM 19.4 °F 7.9 °F 15.8 °F 86% 30.10 in 2.0 mi South 10.4 mph - N/A Snow Light Snow
12:55 PM 19.4 °F 7.9 °F 14.0 °F 80% 30.15 in 2.0 mi South 10.4 mph - N/A Snow Light Snow
1:38 PM 21.2 °F 10.1 °F 17.6 °F 86% 30.07 in 1.2 mi SSE 10.4 mph - N/A Snow Light Snow
1:55 PM 21.2 °F 8.3 °F 17.6 °F 86% 30.10 in 2.0 mi SSE 13.8 mph - N/A Snow Light Snow
2:21 PM 21.2 °F 8.3 °F 17.6 °F 86% 30.04 in 4.0 mi South 13.8 mph - N/A Snow Light Snow
2:41 PM 21.2 °F 10.1 °F 14.0 °F 74% 30.03 in 6.0 mi South 10.4 mph - N/A Snow Light Snow
2:55 PM 21.2 °F 9.5 °F 14.0 °F 74% 30.08 in 4.0 mi South 11.5 mph - N/A Snow Light Snow
3:37 PM 21.2 °F 10.1 °F 14.0 °F 74% 30.01 in 7.0 mi South 10.4 mph - N/A   Overcast
3:55 PM 21.2 °F 10.9 °F 14.0 °F 74% 30.07 in 7.0 mi South 9.2 mph - N/A   Overcast
4:55 PM 19.4 °F 7.2 °F 15.8 °F 86% 30.06 in 4.0 mi South 11.5 mph - N/A   Overcast
5:12 PM 19.4 °F 8.6 °F 15.8 °F 86% 30.00 in 3.0 mi South 9.2 mph - N/A Snow Light Snow
5:55 PM 19.4 °F 9.5 °F 14.0 °F 80% 30.05 in 7.0 mi South 8.1 mph - N/A Snow Light Snow
6:55 PM 19.4 °F 10.4 °F 14.0 °F 80% 30.07 in 5.0 mi SSW 6.9 mph - N/A Snow Light Snow
7:17 PM 19.4 °F 12.8 °F 15.8 °F 86% 30.02 in 3.0 mi South 4.6 mph - N/A Snow Light Snow
7:55 PM 17.6 °F 9.3 °F 15.8 °F 93% 30.08 in 5.0 mi South 5.8 mph - N/A Snow Light Snow
8:55 PM 19.4 °F 11.5 °F 15.8 °F 86% 30.07 in 3.0 mi South 5.8 mph - N/A Snow Light Snow
9:55 PM 17.6 °F 10.7 °F 15.8 °F 93% 30.08 in 5.0 mi South 4.6 mph - N/A Snow Light Snow
10:55 PM 17.6 °F 9.3 °F 15.8 °F 93% 30.08 in 7.0 mi South 5.8 mph - N/A Snow Light Snow